owner,sensor,date,latitude,longitude,vertical_datum,wind_speed,wind_to_direction,wind_speed_of_gust,qcFlag 
TABS,ioos:station:wmo:42043:1,2008-11-01T00:00:00Z,28.9818,-94.9186,4.0,4.89679487,111.6931416,6.03,'11111222,11111222,11111222' 
TABS,ioos:station:wmo:42043:1,2008-11-01T00:30:00Z,28.9818,-94.9186,4.0,5.25289444,114.7602674,6.73,'11111222,11111222,11111222' 
TABS,ioos:station:wmo:42043:1,2008-11-01T01:00:00Z,28.9818,-94.9186,4.0,5.373062441,114.9914877,6.94,'11111222,11111222,11111222' 
TABS,ioos:station:wmo:42043:1,2008-11-01T01:30:00Z,28.9818,-94.9186,4.0,4.956541133,119.3581058,6.16,'11111222,11111222,11111222' 
TABS,ioos:station:wmo:42043:1,2008-11-01T02:00:00Z,28.9818,-94.9186,4.0,4.869630376,119.9349526,6.43,'11111222,11111222,11111222' 
TABS,ioos:station:wmo:42043:1,2008-11-01T02:30:00Z,28.9818,-94.9186,4.0,4.963970185,121.9934945,6.34,'11111222,11111222,11111222' 
TABS,ioos:station:wmo:42043:1,2008-11-01T03:00:00Z,28.9818,-94.9186,4.0,4.98001004,119.602529,6.4,'11111222,11111222,11111222' 
TABS,ioos:station:wmo:42043:1,2008-11-01T03:30:00Z,28.9818,-94.9186,4.0,5.043857651,120.63292,6.98,'11111222,11111222,11111222' 
TABS,ioos:station:wmo:42043:1,2008-11-01T04:00:00Z,28.9818,-94.9186,4.0,4.894772722,120.4421549,6.37,'11111222,11111222,11111222' 
TABS,ioos:station:wmo:42043:1,2008-11-01T04:30:00Z,28.9818,-94.9186,4.0,4.646686992,117.0065612,5.83,'11111222,11111222,11111222' 
TABS,ioos:station:wmo:42043:1,2008-11-01T05:00:00Z,28.9818,-94.9186,4.0,4.526367197,123.8308399,5.62,'11111222,11111222,11111222' 
TABS,ioos:station:wmo:42043:1,2008-11-01T05:30:00Z,28.9818,-94.9186,4.0,4.280292046,129.9772883,5.53,'11111222,11111222,11111222' 
TABS,ioos:station:wmo:42043:1,2008-11-01T06:00:00Z,28.9818,-94.9186,4.0,4.176374025,120.1876613,5.44,'11111222,11111222,11111222' 
TABS,ioos:station:wmo:42043:1,2008-11-01T06:30:00Z,28.9818,-94.9186,4.0,3.774771516,120.5736364,4.84,'11111222,11111222,11111222' 
TABS,ioos:station:wmo:42043:1,2008-11-01T07:00:00Z,28.9818,-94.9186,4.0,4.030198506,115.4209211,5.29,'11111222,11111222,11111222' 
TABS,ioos:station:wmo:42043:1,2008-11-01T07:30:00Z,28.9818,-94.9186,4.0,3.77033155,117.3129976,5.26,'11111222,11111222,11111222' 
TABS,ioos:station:wmo:42043:1,2008-11-01T08:00:00Z,28.9818,-94.9186,4.0,4.05123438,114.0346529,5.23,'11111222,11111222,11111222' 
TABS,ioos:station:wmo:42043:1,2008-11-01T08:30:00Z,28.9818,-94.9186,4.0,3.819384767,120.5267422,4.79,'11111222,11111222,11111222' 
TABS,ioos:station:wmo:42043:1,2008-11-01T09:00:00Z,28.9818,-94.9186,4.0,3.768089702,114.4569027,5.14,'11111222,11111222,11111222' 
TABS,ioos:station:wmo:42043:1,2008-11-01T09:30:00Z,28.9818,-94.9186,4.0,3.563846237,120.5229538,5.03,'11111222,11111222,11111222' 
TABS,ioos:station:wmo:42043:1,2008-11-01T10:00:00Z,28.9818,-94.9186,4.0,3.519801131,117.2206048,4.48,'11111222,11111222,11111222' 
TABS,ioos:station:wmo:42043:1,2008-11-01T10:30:00Z,28.9818,-94.9186,4.0,3.686217574,123.0437594,4.98,'11111222,11111222,11111222' 
TABS,ioos:station:wmo:42043:1,2008-11-01T11:00:00Z,28.9818,-94.9186,4.0,3.53956212,122.657763,4.77,'11111222,11111222,11111222' 
TABS,ioos:station:wmo:42043:1,2008-11-01T11:30:00Z,28.9818,-94.9186,4.0,3.808214805,130.6342584,4.91,'11111222,11111222,11111222' 
TABS,ioos:station:wmo:42043:1,2008-11-01T12:00:00Z,28.9818,-94.9186,4.0,3.34001497,124.8799324,4.34,'11111222,11111222,11111222' 
TABS,ioos:station:wmo:42043:1,2008-11-01T12:30:00Z,28.9818,-94.9186,4.0,3.483805391,116.4183098,4.57,'11111222,11111222,11111222' 
TABS,ioos:station:wmo:42043:1,2008-11-01T13:00:00Z,28.9818,-94.9186,4.0,3.819764391,111.6625098,4.97,'11111222,11111222,11111222' 
TABS,ioos:station:wmo:42043:1,2008-11-01T13:30:00Z,28.9818,-94.9186,4.0,3.425842962,105.5782103,4.24,'11111222,11111222,11111222' 
TABS,ioos:station:wmo:42043:1,2008-11-01T14:00:00Z,28.9818,-94.9186,4.0,3.233635725,106.529912,4.28,'11111222,11111222,11111222' 
TABS,ioos:station:wmo:42043:1,2008-11-01T14:30:00Z,28.9818,-94.9186,4.0,3.306508733,105.2555039,4.33,'11111222,11111222,11111222' 
TABS,ioos:station:wmo:42043:1,2008-11-01T15:00:00Z,28.9818,-94.9186,4.0,3.505952082,111.5893495,4.5,'11111222,11111222,11111222' 
TABS,ioos:station:wmo:42043:1,2008-11-01T15:30:00Z,28.9818,-94.9186,4.0,2.734410357,114.4096359,3.41,'11111222,11111222,11111222' 
TABS,ioos:station:wmo:42043:1,2008-11-01T16:00:00Z,28.9818,-94.9186,4.0,2.713595401,109.3701377,3.46,'11111222,11111222,11111222' 
TABS,ioos:station:wmo:42043:1,2008-11-01T16:30:00Z,28.9818,-94.9186,4.0,2.505454051,99.65069816,3.2,'11111222,11111222,11111222' 
TABS,ioos:station:wmo:42043:1,2008-11-01T17:00:00Z,28.9818,-94.9186,4.0,2.146928038,112.7434051,2.96,'11111222,11111222,11111222' 
TABS,ioos:station:wmo:42043:1,2008-11-01T17:30:00Z,28.9818,-94.9186,4.0,2.16374675,106.9278944,2.92,'11111222,11111222,11111222' 
TABS,ioos:station:wmo:42043:1,2008-11-01T18:00:00Z,28.9818,-94.9186,4.0,2.447243347,83.19401456,4.06,'11111222,11111222,11111222' 
TABS,ioos:station:wmo:42043:1,2008-11-01T18:30:00Z,28.9818,-94.9186,4.0,2.142195136,77.32574871,2.99,'11111222,11111222,11111222' 
TABS,ioos:station:wmo:42043:1,2008-11-01T19:00:00Z,28.9818,-94.9186,4.0,2.051828453,79.89456635,2.86,'11111222,11111222,11111222' 
TABS,ioos:station:wmo:42043:1,2008-11-01T19:30:00Z,28.9818,-94.9186,4.0,2.410746772,88.57342608,3.35,'11111222,11111222,11111222' 
TABS,ioos:station:wmo:42043:1,2008-11-01T20:00:00Z,28.9818,-94.9186,4.0,2.665276721,101.6897628,3.67,'11111222,11111222,11111222' 
TABS,ioos:station:wmo:42043:1,2008-11-01T20:30:00Z,28.9818,-94.9186,4.0,3.16764897,103.5101933,4.34,'11111222,11111222,11111222' 
TABS,ioos:station:wmo:42043:1,2008-11-01T21:00:00Z,28.9818,-94.9186,4.0,3.177703573,112.7727991,4.32,'11111222,11111222,11111222' 
TABS,ioos:station:wmo:42043:1,2008-11-01T21:30:00Z,28.9818,-94.9186,4.0,3.571792267,102.2856117,4.77,'11111222,11111222,11111222' 
TABS,ioos:station:wmo:42043:1,2008-11-01T22:00:00Z,28.9818,-94.9186,4.0,3.459046111,94.14503497,4.15,'11111222,11111222,11111222' 
TABS,ioos:station:wmo:42043:1,2008-11-01T22:30:00Z,28.9818,-94.9186,4.0,3.138295716,111.4966576,4.12,'11111222,11111222,11111222' 
TABS,ioos:station:wmo:42043:1,2008-11-01T23:00:00Z,28.9818,-94.9186,4.0,4.016590594,98.73571744,5.03,'11111222,11111222,11111222' 
TABS,ioos:station:wmo:42043:1,2008-11-01T23:30:00Z,28.9818,-94.9186,4.0,3.684195977,103.6594438,4.79,'11111222,11111222,11111222' 
TABS,ioos:station:wmo:42043:1,2008-11-02T00:00:00Z,28.9818,-94.9186,4.0,3.260337406,116.0152629,4.64,'11111222,11111222,11111222' 
TABS,ioos:station:wmo:42043:1,2008-11-02T00:30:00Z,28.9818,-94.9186,4.0,3.502741783,119.7858103,4.58,'11111222,11111222,11111222' 
TABS,ioos:station:wmo:42043:1,2008-11-02T01:00:00Z,28.9818,-94.9186,4.0,4.308468405,112.5179377,5.6,'11111222,11111222,11111222' 
TABS,ioos:station:wmo:42043:1,2008-11-02T01:30:00Z,28.9818,-94.9186,4.0,4.514432412,110.0810697,5.9,'11111222,11111222,11111222' 
TABS,ioos:station:wmo:42043:1,2008-11-02T02:00:00Z,28.9818,-94.9186,4.0,4.365775991,123.0352148,6.07,'11111222,11111222,11111222' 
TABS,ioos:station:wmo:42043:1,2008-11-02T02:30:00Z,28.9818,-94.9186,4.0,4.643533138,118.000261,5.69,'11111222,11111222,11111222' 
TABS,ioos:station:wmo:42043:1,2008-11-02T03:00:00Z,28.9818,-94.9186,4.0,4.476650534,124.2583776,5.69,'11111222,11111222,11111222' 
TABS,ioos:station:wmo:42043:1,2008-11-02T03:30:00Z,28.9818,-94.9186,4.0,4.890010225,129.1908083,6.41,'11111222,11111222,11111222' 
TABS,ioos:station:wmo:42043:1,2008-11-02T04:00:00Z,28.9818,-94.9186,4.0,5.087170137,133.0089189,6.39,'11111222,11111222,11111222' 
TABS,ioos:station:wmo:42043:1,2008-11-02T04:30:00Z,28.9818,-94.9186,4.0,5.315496214,132.4842827,6.61,'11111222,11111222,11111222' 
TABS,ioos:station:wmo:42043:1,2008-11-02T05:00:00Z,28.9818,-94.9186,4.0,5.473024758,134.8522653,7.25,'11111222,11111222,11111222' 
TABS,ioos:station:wmo:42043:1,2008-11-02T05:30:00Z,28.9818,-94.9186,4.0,5.879625838,131.5529369,7.37,'11111222,11111222,11111222' 
TABS,ioos:station:wmo:42043:1,2008-11-02T06:00:00Z,28.9818,-94.9186,4.0,5.469780617,137.1488213,6.7,'11111222,11111222,11111222' 
TABS,ioos:station:wmo:42043:1,2008-11-02T06:30:00Z,28.9818,-94.9186,4.0,5.079862203,136.9147777,6.44,'11111222,11111222,11111222' 
TABS,ioos:station:wmo:42043:1,2008-11-02T07:00:00Z,28.9818,-94.9186,4.0,5.918487983,135.0687692,7.16,'11111222,11111222,11111222' 
TABS,ioos:station:wmo:42043:1,2008-11-02T07:30:00Z,28.9818,-94.9186,4.0,5.21913786,135.9318701,6.65,'11111222,11111222,11111222' 
TABS,ioos:station:wmo:42043:1,2008-11-02T08:00:00Z,28.9818,-94.9186,4.0,4.562773279,144.1852632,6.03,'11111222,11111222,11111222' 
TABS,ioos:station:wmo:42043:1,2008-11-02T08:30:00Z,28.9818,-94.9186,4.0,3.588119285,148.2149434,4.86,'11111222,11111222,11111222' 
TABS,ioos:station:wmo:42043:1,2008-11-02T09:00:00Z,28.9818,-94.9186,4.0,3.480804505,133.1376991,4.53,'11111222,11111222,11111222' 
TABS,ioos:station:wmo:42043:1,2008-11-02T09:30:00Z,28.9818,-94.9186,4.0,2.825190259,141.4671826,4.64,'11111222,11111222,11111222' 
TABS,ioos:station:wmo:42043:1,2008-11-02T10:00:00Z,28.9818,-94.9186,4.0,3.810052493,126.5694706,4.99,'11111222,11111222,11111222' 
TABS,ioos:station:wmo:42043:1,2008-11-02T10:30:00Z,28.9818,-94.9186,4.0,3.552252806,130.7765686,4.79,'11111222,11111222,11111222' 
TABS,ioos:station:wmo:42043:1,2008-11-02T11:00:00Z,28.9818,-94.9186,4.0,3.767028006,130.3706576,5.19,'11111222,11111222,11111222' 
TABS,ioos:station:wmo:42043:1,2008-11-02T11:30:00Z,28.9818,-94.9186,4.0,3.72108855,119.4587568,4.9,'11111222,11111222,11111222' 
TABS,ioos:station:wmo:42043:1,2008-11-02T12:00:00Z,28.9818,-94.9186,4.0,3.084623154,128.0219352,4.35,'11111222,11111222,11111222' 
TABS,ioos:station:wmo:42043:1,2008-11-02T12:30:00Z,28.9818,-94.9186,4.0,3.081460693,124.1545407,4.46,'11111222,11111222,11111222' 
TABS,ioos:station:wmo:42043:1,2008-11-02T13:00:00Z,28.9818,-94.9186,4.0,2.969528582,116.8242741,4.05,'11111222,11111222,11111222' 
TABS,ioos:station:wmo:42043:1,2008-11-02T13:30:00Z,28.9818,-94.9186,4.0,2.676751763,110.3309445,3.74,'11111222,11111222,11111222' 
TABS,ioos:station:wmo:42043:1,2008-11-02T14:00:00Z,28.9818,-94.9186,4.0,2.816416162,93.86861591,4.03,'11111222,11111222,11111222' 
TABS,ioos:station:wmo:42043:1,2008-11-02T14:30:00Z,28.9818,-94.9186,4.0,2.961418579,101.6897628,3.89,'11111222,11111222,11111222' 
TABS,ioos:station:wmo:42043:1,2008-11-02T15:00:00Z,28.9818,-94.9186,4.0,3.332041416,101.0742662,4.61,'11111222,11111222,11111222' 
TABS,ioos:station:wmo:42043:1,2008-11-02T15:30:00Z,28.9818,-94.9186,4.0,3.680244557,102.7149494,4.97,'11111222,11111222,11111222' 
TABS,ioos:station:wmo:42043:1,2008-11-02T16:00:00Z,28.9818,-94.9186,4.0,4.179294199,104.8346621,5.32,'11111222,11111222,11111222' 
TABS,ioos:station:wmo:42043:1,2008-11-02T16:30:00Z,28.9818,-94.9186,4.0,4.004722213,104.9041553,5.04,'11111222,11111222,11111222' 
TABS,ioos:station:wmo:42043:1,2008-11-02T17:00:00Z,28.9818,-94.9186,4.0,4.138852498,105.4133428,5.35,'11111222,11111222,11111222' 
TABS,ioos:station:wmo:42043:1,2008-11-02T17:30:00Z,28.9818,-94.9186,4.0,4.150144576,116.6271509,5.17,'11111222,11111222,11111222' 
TABS,ioos:station:wmo:42043:1,2008-11-02T18:00:00Z,28.9818,-94.9186,4.0,3.74232548,112.7968891,5.02,'11111222,11111222,11111222' 
TABS,ioos:station:wmo:42043:1,2008-11-02T18:30:00Z,28.9818,-94.9186,4.0,3.774864236,115.7508348,5.12,'11111222,11111222,11111222' 
TABS,ioos:station:wmo:42043:1,2008-11-02T19:00:00Z,28.9818,-94.9186,4.0,3.449246294,121.8472599,4.71,'11111222,11111222,11111222' 
TABS,ioos:station:wmo:42043:1,2008-11-02T19:30:00Z,28.9818,-94.9186,4.0,3.406420409,109.5523704,4.76,'11111222,11111222,11111222' 
TABS,ioos:station:wmo:42043:1,2008-11-02T20:00:00Z,28.9818,-94.9186,4.0,3.594342777,114.1408906,5.12,'11111222,11111222,11111222' 
TABS,ioos:station:wmo:42043:1,2008-11-02T20:30:00Z,28.9818,-94.9186,4.0,3.756660751,116.2243685,4.9,'11111222,11111222,11111222' 
TABS,ioos:station:wmo:42043:1,2008-11-02T21:00:00Z,28.9818,-94.9186,4.0,3.730804203,112.3721503,4.92,'11111222,11111222,11111222' 
TABS,ioos:station:wmo:42043:1,2008-11-02T21:30:00Z,28.9818,-94.9186,4.0,3.860634663,111.5813066,5.28,'11111222,11111222,11111222' 
TABS,ioos:station:wmo:42043:1,2008-11-02T22:00:00Z,28.9818,-94.9186,4.0,4.136568626,107.7344974,4.94,'11111222,11111222,11111222' 
TABS,ioos:station:wmo:42043:1,2008-11-02T22:30:00Z,28.9818,-94.9186,4.0,3.970201506,110.0327991,5.16,'11111222,11111222,11111222' 
TABS,ioos:station:wmo:42043:1,2008-11-02T23:00:00Z,28.9818,-94.9186,4.0,4.662295572,109.6789987,5.87,'11111222,11111222,11111222' 
TABS,ioos:station:wmo:42043:1,2008-11-02T23:30:00Z,28.9818,-94.9186,4.0,5.098637073,113.0956687,6.53,'11111222,11111222,11111222' 
TABS,ioos:station:wmo:42043:1,2008-11-03T00:00:00Z,28.9818,-94.9186,4.0,5.067001085,116.8688263,6.54,'11111222,11111222,11111222' 
TABS,ioos:station:wmo:42043:1,2008-11-03T00:30:00Z,28.9818,-94.9186,4.0,5.143277165,113.1258201,6.75,'11111222,11111222,11111222' 
TABS,ioos:station:wmo:42043:1,2008-11-03T01:00:00Z,28.9818,-94.9186,4.0,5.193197474,113.0106283,6.7,'11111222,11111222,11111222' 
TABS,ioos:station:wmo:42043:1,2008-11-03T01:30:00Z,28.9818,-94.9186,4.0,5.164348943,111.3485331,6.7,'11111222,11111222,11111222' 
TABS,ioos:station:wmo:42043:1,2008-11-03T02:00:00Z,28.9818,-94.9186,4.0,5.543365404,111.1491939,7.0,'11111222,11111222,11111222' 
TABS,ioos:station:wmo:42043:1,2008-11-03T02:30:00Z,28.9818,-94.9186,4.0,4.945563669,122.9513593,6.54,'11111222,11111222,11111222' 
TABS,ioos:station:wmo:42043:1,2008-11-03T03:00:00Z,28.9818,-94.9186,4.0,4.801968346,122.4989909,6.62,'11111222,11111222,11111222' 
TABS,ioos:station:wmo:42043:1,2008-11-03T03:30:00Z,28.9818,-94.9186,4.0,5.360755544,118.5255143,6.99,'11111222,11111222,11111222' 
TABS,ioos:station:wmo:42043:1,2008-11-03T04:00:00Z,28.9818,-94.9186,4.0,5.459129967,121.5940977,7.06,'11111222,11111222,11111222' 
TABS,ioos:station:wmo:42043:1,2008-11-03T04:30:00Z,28.9818,-94.9186,4.0,5.275462065,124.2627446,7.09,'11111222,11111222,11111222' 
TABS,ioos:station:wmo:42043:1,2008-11-03T05:00:00Z,28.9818,-94.9186,4.0,5.394256205,128.5274334,7.16,'11111222,11111222,11111222' 
TABS,ioos:station:wmo:42043:1,2008-11-03T05:30:00Z,28.9818,-94.9186,4.0,5.505351942,128.1400224,7.16,'11111222,11111222,11111222' 
TABS,ioos:station:wmo:42043:1,2008-11-03T06:00:00Z,28.9818,-94.9186,4.0,5.064484179,136.4404057,6.79,'11111222,11111222,11111222' 
TABS,ioos:station:wmo:42043:1,2008-11-03T06:30:00Z,28.9818,-94.9186,4.0,5.034411584,129.762184,6.81,'11111222,11111222,11111222' 
TABS,ioos:station:wmo:42043:1,2008-11-03T07:00:00Z,28.9818,-94.9186,4.0,5.119072182,137.9299023,6.65,'11111222,11111222,11111222' 
TABS,ioos:station:wmo:42043:1,2008-11-03T07:30:00Z,28.9818,-94.9186,4.0,5.186231773,131.404498,6.6,'11111222,11111222,11111222' 
TABS,ioos:station:wmo:42043:1,2008-11-03T08:00:00Z,28.9818,-94.9186,4.0,4.733339202,136.9693456,5.99,'11111222,11111222,11111222' 
TABS,ioos:station:wmo:42043:1,2008-11-03T08:30:00Z,28.9818,-94.9186,4.0,4.079325925,141.6695222,5.58,'11111222,11111222,11111222' 
TABS,ioos:station:wmo:42043:1,2008-11-03T09:00:00Z,28.9818,-94.9186,4.0,4.511429929,134.6411,5.68,'11111222,11111222,11111222' 
TABS,ioos:station:wmo:42043:1,2008-11-03T09:30:00Z,28.9818,-94.9186,4.0,4.837933443,133.660311,6.51,'11111222,11111222,11111222' 
TABS,ioos:station:wmo:42043:1,2008-11-03T10:00:00Z,28.9818,-94.9186,4.0,4.766088543,134.4902789,6.29,'11111222,11111222,11111222' 
TABS,ioos:station:wmo:42043:1,2008-11-03T10:30:00Z,28.9818,-94.9186,4.0,4.653869358,138.3974407,6.78,'11111222,11111222,11111222' 
TABS,ioos:station:wmo:42043:1,2008-11-03T11:00:00Z,28.9818,-94.9186,4.0,4.541728746,140.8085332,6.04,'11111222,11111222,11111222' 
TABS,ioos:station:wmo:42043:1,2008-11-03T11:30:00Z,28.9818,-94.9186,4.0,4.430857705,139.1184958,5.99,'11111222,11111222,11111222' 
TABS,ioos:station:wmo:42043:1,2008-11-03T12:00:00Z,28.9818,-94.9186,4.0,4.527692569,133.2104093,5.96,'11111222,11111222,11111222' 
TABS,ioos:station:wmo:42043:1,2008-11-03T12:30:00Z,28.9818,-94.9186,4.0,4.837933443,133.660311,6.36,'11111222,11111222,11111222' 
TABS,ioos:station:wmo:42043:1,2008-11-03T13:00:00Z,28.9818,-94.9186,4.0,4.908818595,131.6144768,6.7,'11111222,11111222,11111222' 
TABS,ioos:station:wmo:42043:1,2008-11-03T13:30:00Z,28.9818,-94.9186,4.0,4.916350272,128.6419381,6.28,'11111222,11111222,11111222' 
TABS,ioos:station:wmo:42043:1,2008-11-03T14:00:00Z,28.9818,-94.9186,4.0,5.221427008,129.4827538,6.44,'11111222,11111222,11111222' 
TABS,ioos:station:wmo:42043:1,2008-11-03T14:30:00Z,28.9818,-94.9186,4.0,4.543181704,129.0146621,6.02,'11111222,11111222,11111222' 
TABS,ioos:station:wmo:42043:1,2008-11-03T15:00:00Z,28.9818,-94.9186,4.0,4.770848981,125.7893107,6.15,'11111222,11111222,11111222' 
TABS,ioos:station:wmo:42043:1,2008-11-03T15:30:00Z,28.9818,-94.9186,4.0,4.856706703,132.1629116,6.15,'11111222,11111222,11111222' 
TABS,ioos:station:wmo:42043:1,2008-11-03T16:00:00Z,28.9818,-94.9186,4.0,4.583284848,138.4498206,5.95,'11111222,11111222,11111222' 
TABS,ioos:station:wmo:42043:1,2008-11-03T16:30:00Z,28.9818,-94.9186,4.0,4.9463623,132.7882789,6.29,'11111222,11111222,11111222' 
TABS,ioos:station:wmo:42043:1,2008-11-03T17:00:00Z,28.9818,-94.9186,4.0,3.783596173,131.357196,5.33,'11111222,11111222,11111222' 
TABS,ioos:station:wmo:42043:1,2008-11-03T17:30:00Z,28.9818,-94.9186,4.0,3.754064464,127.2060048,5.16,'11111222,11111222,11111222' 
TABS,ioos:station:wmo:42043:1,2008-11-03T18:00:00Z,28.9818,-94.9186,4.0,4.167505249,125.3302499,5.58,'11111222,11111222,11111222' 
TABS,ioos:station:wmo:42043:1,2008-11-03T18:30:00Z,28.9818,-94.9186,4.0,3.795273376,121.0935573,4.79,'11111222,11111222,11111222' 
TABS,ioos:station:wmo:42043:1,2008-11-03T19:00:00Z,28.9818,-94.9186,4.0,3.869082579,120.6085515,5.07,'11111222,11111222,11111222' 
TABS,ioos:station:wmo:42043:1,2008-11-03T19:30:00Z,28.9818,-94.9186,4.0,3.641112467,115.3689918,4.88,'11111222,11111222,11111222' 
TABS,ioos:station:wmo:42043:1,2008-11-03T20:00:00Z,28.9818,-94.9186,4.0,3.756620822,111.7168131,5.13,'11111222,11111222,11111222' 
TABS,ioos:station:wmo:42043:1,2008-11-03T20:30:00Z,28.9818,-94.9186,4.0,3.896793554,109.6443085,5.0,'11111222,11111222,11111222' 
TABS,ioos:station:wmo:42043:1,2008-11-03T21:00:00Z,28.9818,-94.9186,4.0,3.781335743,114.5320991,4.98,'11111222,11111222,11111222' 
TABS,ioos:station:wmo:42043:1,2008-11-03T21:30:00Z,28.9818,-94.9186,4.0,3.952973564,107.9769712,5.44,'11111222,11111222,11111222' 
TABS,ioos:station:wmo:42043:1,2008-11-03T22:00:00Z,28.9818,-94.9186,4.0,4.272247652,108.5625558,5.49,'11111222,11111222,11111222' 
TABS,ioos:station:wmo:42043:1,2008-11-03T22:30:00Z,28.9818,-94.9186,4.0,4.383263624,113.8168611,5.57,'11111222,11111222,11111222' 
TABS,ioos:station:wmo:42043:1,2008-11-03T23:00:00Z,28.9818,-94.9186,4.0,4.871652697,101.7255055,6.4,'11111222,11111222,11111222' 
TABS,ioos:station:wmo:42043:1,2008-11-03T23:30:00Z,28.9818,-94.9186,4.0,5.407078694,100.8739159,6.89,'11111222,11111222,11111222' 
TABS,ioos:station:wmo:42043:1,2008-11-04T00:00:00Z,28.9818,-94.9186,4.0,5.821683605,106.5676522,6.99,'11111222,11111222,11111222' 
TABS,ioos:station:wmo:42043:1,2008-11-04T00:30:00Z,28.9818,-94.9186,4.0,6.201878748,105.7173596,7.58,'11111222,11111222,11111222' 
TABS,ioos:station:wmo:42043:1,2008-11-04T01:00:00Z,28.9818,-94.9186,4.0,6.500807642,106.9022325,7.91,'11111222,11111222,11111222' 
TABS,ioos:station:wmo:42043:1,2008-11-04T01:30:00Z,28.9818,-94.9186,4.0,6.84853999,106.9800921,8.48,'11111222,11111222,11111222' 
TABS,ioos:station:wmo:42043:1,2008-11-04T02:00:00Z,28.9818,-94.9186,4.0,6.834398291,102.592851,8.15,'11111222,11111222,11111222' 
TABS,ioos:station:wmo:42043:1,2008-11-04T02:30:00Z,28.9818,-94.9186,4.0,6.498961455,107.7383337,7.97,'11111222,11111222,11111222' 
TABS,ioos:station:wmo:42043:1,2008-11-04T03:00:00Z,28.9818,-94.9186,4.0,6.805409613,108.8613087,8.7,'11111222,11111222,11111222' 
TABS,ioos:station:wmo:42043:1,2008-11-04T03:30:00Z,28.9818,-94.9186,4.0,6.788593374,112.9773117,8.3,'11111222,11111222,11111222' 
TABS,ioos:station:wmo:42043:1,2008-11-04T04:00:00Z,28.9818,-94.9186,4.0,6.628197342,122.1798239,8.71,'11111222,11111222,11111222' 
TABS,ioos:station:wmo:42043:1,2008-11-04T04:30:00Z,28.9818,-94.9186,4.0,5.862849137,130.0186138,7.46,'11111222,11111222,11111222' 
TABS,ioos:station:wmo:42043:1,2008-11-04T05:00:00Z,28.9818,-94.9186,4.0,6.375586248,130.6113681,8.21,'11111222,11111222,11111222' 
TABS,ioos:station:wmo:42043:1,2008-11-04T05:30:00Z,28.9818,-94.9186,4.0,5.968048257,135.271857,7.78,'11111222,11111222,11111222' 
TABS,ioos:station:wmo:42043:1,2008-11-04T06:00:00Z,28.9818,-94.9186,4.0,5.850888821,136.8702469,7.73,'11111222,11111222,11111222' 
TABS,ioos:station:wmo:42043:1,2008-11-04T06:30:00Z,28.9818,-94.9186,4.0,5.576253222,139.6553405,7.22,'11111222,11111222,11111222' 
TABS,ioos:station:wmo:42043:1,2008-11-04T07:00:00Z,28.9818,-94.9186,4.0,5.572880763,136.0181515,7.47,'11111222,11111222,11111222' 
TABS,ioos:station:wmo:42043:1,2008-11-04T07:30:00Z,28.9818,-94.9186,4.0,5.225523897,135.077847,6.67,'11111222,11111222,11111222' 
TABS,ioos:station:wmo:42043:1,2008-11-04T08:00:00Z,28.9818,-94.9186,4.0,4.846380092,140.6942591,6.39,'11111222,11111222,11111222' 
TABS,ioos:station:wmo:42043:1,2008-11-04T08:30:00Z,28.9818,-94.9186,4.0,5.38145891,135.6778936,7.67,'11111222,11111222,11111222' 
TABS,ioos:station:wmo:42043:1,2008-11-04T09:00:00Z,28.9818,-94.9186,4.0,5.056095331,146.3730803,6.22,'11111222,11111222,11111222' 
TABS,ioos:station:wmo:42043:1,2008-11-04T09:30:00Z,28.9818,-94.9186,4.0,5.276911976,136.5360241,6.69,'11111222,11111222,11111222' 
TABS,ioos:station:wmo:42043:1,2008-11-04T10:00:00Z,28.9818,-94.9186,4.0,4.709861994,135.860546,6.02,'11111222,11111222,11111222' 
TABS,ioos:station:wmo:42043:1,2008-11-04T10:30:00Z,28.9818,-94.9186,4.0,4.443872185,132.8117382,5.59,'11111222,11111222,11111222' 
TABS,ioos:station:wmo:42043:1,2008-11-04T11:00:00Z,28.9818,-94.9186,4.0,3.906916943,132.5107686,5.01,'11111222,11111222,11111222' 
TABS,ioos:station:wmo:42043:1,2008-11-04T11:30:00Z,28.9818,-94.9186,4.0,4.047085371,145.3678149,5.13,'11111222,11111222,11111222' 
TABS,ioos:station:wmo:42043:1,2008-11-04T12:00:00Z,28.9818,-94.9186,4.0,4.012031904,142.9019032,5.09,'11111222,11111222,11111222' 
TABS,ioos:station:wmo:42043:1,2008-11-04T12:30:00Z,28.9818,-94.9186,4.0,3.848869964,149.9045758,4.81,'11111222,11111222,11111222' 
TABS,ioos:station:wmo:42043:1,2008-11-04T13:00:00Z,28.9818,-94.9186,4.0,3.935593983,141.4996468,5.06,'11111222,11111222,11111222' 
TABS,ioos:station:wmo:42043:1,2008-11-04T13:30:00Z,28.9818,-94.9186,4.0,3.647821268,139.8930734,4.41,'11111222,11111222,11111222' 
TABS,ioos:station:wmo:42043:1,2008-11-04T14:00:00Z,28.9818,-94.9186,4.0,4.396384879,122.931332,5.44,'11111222,11111222,11111222' 
TABS,ioos:station:wmo:42043:1,2008-11-04T14:30:00Z,28.9818,-94.9186,4.0,4.610694091,119.0670269,6.09,'11111222,11111222,11111222' 
TABS,ioos:station:wmo:42043:1,2008-11-04T15:00:00Z,28.9818,-94.9186,4.0,4.608958668,118.5116005,5.42,'11111222,11111222,11111222' 
TABS,ioos:station:wmo:42043:1,2008-11-04T15:30:00Z,28.9818,-94.9186,4.0,4.385396219,121.4794607,5.33,'11111222,11111222,11111222' 
TABS,ioos:station:wmo:42043:1,2008-11-04T16:00:00Z,28.9818,-94.9186,4.0,4.450629169,120.3679869,5.39,'11111222,11111222,11111222' 
TABS,ioos:station:wmo:42043:1,2008-11-04T16:30:00Z,28.9818,-94.9186,4.0,3.989310717,113.802444,5.1,'11111222,11111222,11111222' 
TABS,ioos:station:wmo:42043:1,2008-11-04T17:00:00Z,28.9818,-94.9186,4.0,3.224437936,98.38179934,4.12,'11111222,11111222,11111222' 
TABS,ioos:station:wmo:42043:1,2008-11-04T17:30:00Z,28.9818,-94.9186,4.0,3.668051254,100.2074454,4.41,'11111222,11111222,11111222' 
TABS,ioos:station:wmo:42043:1,2008-11-04T18:00:00Z,28.9818,-94.9186,4.0,3.709123886,94.01999401,4.36,'11111222,11111222,11111222' 
TABS,ioos:station:wmo:42043:1,2008-11-04T18:30:00Z,28.9818,-94.9186,4.0,3.434326717,99.21587676,4.14,'11111222,11111222,11111222' 